This is the latest recevied weather packets stored in our database for station/object N4HAC. If no packets are shown the sender has not sent any weather packets the latest 10 day(s).
| Time | Temp. | Humidity | Pressure | Rain* | Wind** | Luminosity | Snow |
|---|---|---|---|---|---|---|---|
| 1777397410 | 15.56° C | 80% | 1012.4 hPa | 0 mm | - | 361 W/m² | - |
| 1777397106 | 15° C | 78% | 1012.1 hPa | 0 mm | - | 317 W/m² | - |
| 1777396803 | 15.56° C | 80% | 1012.5 hPa | 0 mm | - | 465 W/m² | - |
| 1777396499 | 15.56° C | 79% | 1012.5 hPa | 0 mm | - | 376 W/m² | - |
| 1777396196 | 15° C | 80% | 1012.4 hPa | 0 mm | - | 234 W/m² | - |
| 1777395892 | 14.44° C | 79% | 1012.5 hPa | 0 mm | - | 257 W/m² | - |
| 1777395588 | 15° C | 78% | 1012.6 hPa | 0 mm | - | 306 W/m² | - |
| 1777395284 | 15° C | 79% | 1012.6 hPa | 0 mm | - | 329 W/m² | - |
| 1777394982 | 14.44° C | 79% | 1012.5 hPa | 0 mm | - | 445 W/m² | - |
| 1777394678 | 13.89° C | 79% | 1012.9 hPa | 0 mm | - | 387 W/m² | - |
| 1777394374 | 14.44° C | 78% | 1012.6 hPa | 0 mm | - | 454 W/m² | - |
| 1777394071 | 14.44° C | 79% | 1012.7 hPa | 0 mm | - | 428 W/m² | - |
| 1777393767 | 14.44° C | 80% | 1012.9 hPa | 0 mm | - | 468 W/m² | - |
| 1777393461 | 13.89° C | 83% | 1012.9 hPa | 0 mm | - | 408 W/m² | - |
| 1777393157 | 13.33° C | 81% | 1013.2 hPa | 0 mm | - | 299 W/m² | - |
| 1777392854 | 12.78° C | 82% | 1013.2 hPa | 0 mm | - | 211 W/m² | - |
| 1777392549 | 12.78° C | 83% | 1013.6 hPa | 0 mm | - | 207 W/m² | - |
| 1777392244 | 12.78° C | 83% | 1013.6 hPa | 0 mm | - | 139 W/m² | - |
| 1777391940 | 12.22° C | 82% | 1013.5 hPa | 0 mm | - | 188 W/m² | - |
| 1777391635 | 12.78° C | 82% | 1013.7 hPa | 0 mm | - | 222 W/m² | - |
| 1777391332 | 12.78° C | 83% | 1013.6 hPa | 0 mm | - | 258 W/m² | - |
| 1777391029 | 12.22° C | 82% | 1013.9 hPa | 0 mm | - | 257 W/m² | - |
| 1777390724 | 12.22° C | 82% | 1014.1 hPa | 0 mm | - | 236 W/m² | - |
| 1777390421 | 12.22° C | 82% | 1013.9 hPa | 0 mm | - | 217 W/m² | - |
| 1777390117 | 12.22° C | 83% | 1014.2 hPa | 0 mm | - | 211 W/m² | - |
* Rain latest hour (hover to see other rain measurements)
** Current wind speed in m/s (hover to see current wind gust speed)